EW6513 Weather Reports


time (UTC)temp
C
wind
direction
speed
KPH
gust
KPH
rain 1hr
cm
rain 24hr
cm
rain mn
cm
humidity
%
barometer
mb
20260506050949 17 238 6.4 14.5 0.00 0.00 0.00 73 1008.9
20260506050451 17 227 6.4 16.1 0.00 0.00 0.00 72 1008.9
20260506044933 17 211 6.4 16.1 0.00 0.00 0.00 72 1009.1
20260506044430 17 219 6.4 17.7 0.00 0.00 0.00 72 1009.1
20260506043928 17 246 6.4 17.7 0.00 0.00 0.00 71 1009.1
20260506043428 17 253 6.4 16.1 0.00 0.00 0.00 71 1009.0
20260506042928 17 233 8.0 16.1 0.00 0.00 0.00 70 1009.1
20260506042426 17 223 8.0 16.1 0.00 0.00 0.00 70 1009.1
20260506041927 17 238 6.4 14.5 0.00 0.00 0.00 70 1009.1
20260506041817 17 217 6.4 19.3 0.00 0.00 0.00 70 1009.1
20260506041705 17 249 6.4 17.7 0.00 0.00 0.00 70 1009.0
20260506040658 17 239 8.0 19.3 0.00 0.00 0.00 70 1009.1
20260506035926 17 215 6.4 16.1 0.00 0.00 0.00 70 1009.0
20260506035425 17 239 4.8 14.5 0.00 0.00 0.00 70 1009.0
20260506034926 17 221 4.8 14.5 0.00 0.00 0.00 70 1009.0
20260506034427 17 206 4.8 16.1 0.00 0.00 0.00 70 1009.0
20260506033927 17 247 6.4 16.1 0.00 0.00 0.00 69 1009.1
20260506033425 17 205 4.8 16.1 0.00 0.00 0.00 69 1008.9
20260506032925 17 250 6.4 22.5 0.00 0.00 0.00 68 1008.9
20260506032426 18 247 6.4 22.5 0.00 0.00 0.00 68 1008.9
20260506031925 18 229 8.0 24.1 0.00 0.00 0.00 67 1008.9
20260506031425 18 242 9.7 25.7 0.00 0.00 0.00 67 1008.9
20260506030926 18 223 9.7 25.7 0.00 0.00 0.00 66 1008.9
20260506030426 18 229 8.0 25.7 0.00 0.00 0.00 66 1009.1
20260506025925 18 236 8.0 24.1 0.00 0.00 0.00 66 1009.0
20260506025425 18 215 8.0 24.1 0.00 0.00 0.00 65 1008.9
20260506024926 18 227 9.7 24.1 0.00 0.00 0.00 64 1008.9
20260506024425 18 210 9.7 24.1 0.00 0.00 0.00 63 1008.9
20260506024157 18 223 9.7 27.4 0.00 0.00 0.00 63 1008.9
20260506023424 19 305 11.3 27.4 0.00 0.00 0.00 62 1009.0
20260506022926 19 220 9.7 27.4 0.00 0.00 0.00 61 1008.9
20260506022423 19 221 8.0 27.4 0.00 0.00 0.00 60 1008.9
20260506021921 19 200 9.7 33.8 0.00 0.00 0.00 59 1009.0
20260506021421 20 225 11.3 33.8 0.00 0.00 0.00 58 1008.8
20260506020919 20 199 9.7 30.6 0.00 0.00 0.00 57 1008.7
20260506020420 20 226 6.4 25.7 0.00 0.00 0.00 56 1008.7
20260506015918 20 223 6.4 20.9 0.00 0.00 0.00 56 1008.7
20260506015416 20 233 8.0 25.7 0.00 0.00 0.00 54 1008.7
20260506014917 20 198 8.0 25.7 0.00 0.00 0.00 54 1008.7
20260506014912 20 211 8.0 25.7 0.00 0.00 0.00 54 1008.7
20260506014134 20 191 8.0 25.7 0.00 0.00 0.00 53 1008.7
20260506013400 20 198 6.4 24.1 0.00 0.00 0.00 54 1008.7
20260506012859 20 207 8.0 17.7 0.00 0.00 0.00 53 1008.6
20260506012357 20 227 8.0 25.7 0.00 0.00 0.00 53 1008.6
20260506011859 20 199 6.4 25.7 0.00 0.00 0.00 54 1008.5
20260506011358 20 225 4.8 17.7 0.00 0.00 0.00 53 1008.4
20260506010858 20 184 4.8 14.5 0.00 0.00 0.00 54 1008.3
20260506010358 20 180 6.4 17.7 0.00 0.00 0.00 53 1008.3
20260506005857 20 219 6.4 17.7 0.00 0.00 0.00 53 1008.3
20260506005357 20 265 4.8 12.9 0.00 0.00 0.00 52 1008.1
20260506004856 20 211 6.4 20.9 0.00 0.00 0.00 52 1008.1
20260506004356 21 189 6.4 22.5 0.00 0.00 0.00 51 1008.1
20260506004126 21 233 6.4 22.5 0.00 0.00 0.00 50 1008.0
20260506003356 21 256 8.0 20.9 0.00 0.00 0.00 49 1007.9
20260506002857 21 197 8.0 20.9 0.00 0.00 0.00 48 1007.9
20260506002358 21 195 6.4 20.9 0.00 0.00 0.00 47 1007.8
20260506001857 21 216 8.0 20.9 0.00 0.00 0.00 46 1007.7
20260506001630 21 215 8.0 20.9 0.00 0.00 0.00 46 1007.7
20260506000852 21 204 8.0 24.1 0.00 0.00 0.00 46 1007.7
20260506000346 21 217 6.4 24.1 0.00 0.00 0.00 44 1007.6
20260505235844 21 219 6.4 20.9 0.00 0.00 0.00 44 1007.5
20260505235615 21 256 6.4 20.9 0.00 0.00 0.00 44 1007.5
20260505234848 22 294 8.0 24.1 0.00 0.00 0.00 43 1007.5
20260505234843 22 211 8.0 24.1 0.00 0.00 0.00 43 1007.5
20260505233841 22 261 6.4 29.0 0.00 0.00 0.00 44 1007.4
20260505233341 22 217 8.0 29.0 0.00 0.00 0.00 42 1007.4
20260505232841 22 207 6.4 19.3 0.00 0.00 0.00 43 1007.4
20260505232341 22 220 6.4 22.5 0.00 0.00 0.00 42 1007.3
20260505231842 22 232 6.4 22.5 0.00 0.00 0.00 42 1007.3
20260505231341 22 261 4.8 16.1 0.00 0.00 0.00 41 1007.2
20260505231112 22 231 4.8 24.1 0.00 0.00 0.00 41 1007.1
20260505230341 22 238 6.4 24.1 0.00 0.00 0.00 42 1007.0
20260505225840 22 206 8.0 27.4 0.00 0.00 0.00 41 1007.1
20260505225341 23 259 9.7 27.4 0.00 0.00 0.00 39 1007.0
20260505224842 23 236 8.0 29.0 0.00 0.00 0.00 39 1006.9
20260505224342 23 246 6.4 29.0 0.00 0.00 0.00 38 1006.8
20260505223841 23 244 8.0 22.5 0.00 0.00 0.00 40 1006.8
20260505223335 23 259 9.7 30.6 0.00 0.00 0.00 37 1006.8
20260505222830 23 270 8.0 30.6 0.00 0.00 0.00 37 1006.8
20260505222556 24 200 8.0 29.0 0.00 0.00 0.00 36 1006.7
20260505221824 24 213 8.0 27.4 0.00 0.00 0.00 37 1006.8
20260505221324 24 252 9.7 33.8 0.00 0.00 0.00 37 1006.8
20260505220827 24 223 11.3 33.8 0.00 0.00 0.00 35 1006.7
20260505220326 24 202 9.7 33.8 0.00 0.00 0.00 34 1006.8
20260505215825 24 202 9.7 33.8 0.00 0.00 0.00 35 1006.8
20260505215326 25 216 9.7 32.2 0.00 0.00 0.00 37 1006.7
20260505214825 24 240 9.7 30.6 0.00 0.00 0.00 36 1006.7
20260505214330 24 259 9.7 29.0 0.00 0.00 0.00 36 1006.7
20260505214325 24 242 9.7 30.6 0.00 0.00 0.00 36 1006.8
20260505213324 24 210 9.7 29.0 0.00 0.00 0.00 37 1006.6
20260505212822 24 277 9.7 29.0 0.00 0.00 0.00 36 1006.7
20260505212323 24 275 9.7 29.0 0.00 0.00 0.00 36 1006.5
20260505211823 25 206 9.7 30.6 0.00 0.00 0.00 35 1006.5
20260505211322 25 204 11.3 38.6 0.00 0.00 0.00 34 1006.5
20260505210821 25 226 14.5 38.6 0.00 0.00 0.00 33 1006.5
20260505210318 25 199 14.5 45.1 0.00 0.00 0.00 33 1006.5
20260505205817 26 255 14.5 45.1 0.00 0.00 0.00 31 1006.4
20260505205316 26 222 12.9 35.4 0.00 0.00 0.00 34 1006.4
20260505205047 26 246 12.9 35.4 0.00 0.00 0.00 34 1006.3
20260505204547 26 296 12.9 41.8 0.00 0.00 0.00 36 1006.3
20260505203821 26 257 11.3 33.8 0.00 0.00 0.00 36 1006.2
20260505203816 26 259 12.9 41.8 0.00 0.00 0.00 33 1006.3
20260505202817 26 283 11.3 27.4 0.00 0.00 0.00 33 1006.5
20260505202318 26 191 9.7 25.7 0.00 0.00 0.00 35 1006.4
20260505201816 26 248 11.3 32.2 0.00 0.00 0.00 38 1006.6
20260505201317 26 252 12.9 32.2 0.00 0.00 0.00 39 1006.4
20260505200817 26 220 12.9 35.4 0.00 0.00 0.00 38 1006.4
20260505200316 26 196 11.3 35.4 0.00 0.00 0.00 37 1006.4
20260505195817 26 233 11.3 32.2 0.00 0.00 0.00 37 1006.6
20260505195318 26 228 12.9 32.2 0.00 0.00 0.00 38 1006.6
20260505194817 26 279 14.5 40.2 0.00 0.00 0.00 38 1006.6
20260505194320 26 272 11.3 40.2 0.00 0.00 0.00 35 1006.6
20260505193820 26 255 9.7 32.2 0.00 0.00 0.00 38 1006.7
20260505193317 26 254 12.9 38.6 0.00 0.00 0.00 39 1006.8
20260505192815 26 277 14.5 38.6 0.00 0.00 0.00 40 1006.8
20260505192311 26 193 12.9 33.8 0.00 0.00 0.00 39 1006.6
20260505191803 26 205 9.7 30.6 0.00 0.00 0.00 36 1006.8
20260505191527 26 209 11.3 37.0 0.00 0.00 0.00 41 1006.8
20260505190751 26 298 12.9 37.0 0.00 0.00 0.00 36 1006.9
20260505190245 26 250 12.9 32.2 0.00 0.00 0.00 36 1007.0
20260505185739 27 223 12.9 40.2 0.00 0.00 0.00 37 1007.0
20260505185233 27 234 12.9 40.2 0.00 0.00 0.00 38 1007.1
20260505184727 26 246 11.3 33.8 0.00 0.00 0.00 40 1007.1
20260505184453 26 219 11.3 33.8 0.00 0.00 0.00 42 1007.2
20260505183715 26 273 9.7 33.8 0.00 0.00 0.00 40 1007.2
20260505183209 27 215 9.7 27.4 0.00 0.00 0.00 39 1007.3
20260505182703 27 267 9.7 27.4 0.00 0.00 0.00 41 1007.4
20260505182157 27 259 11.3 37.0 0.00 0.00 0.00 41 1007.5
20260505181651 27 249 12.9 37.0 0.00 0.00 0.00 41 1007.4
20260505181145 26 223 16.1 43.5 0.00 0.00 0.00 42 1007.6
20260505180638 26 204 14.5 43.5 0.00 0.00 0.00 38 1007.6
20260505180404 26 198 9.7 33.8 0.00 0.00 0.00 42 1007.6
20260505175627 26 209 11.3 35.4 0.00 0.00 0.00 45 1007.5
20260505175121 26 190 8.0 35.4 0.00 0.00 0.00 40 1007.6
20260505174615 27 270 9.7 27.4 0.00 0.00 0.00 37 1007.7
20260505174109 27 325 12.9 32.2 0.00 0.00 0.00 43 1007.7
20260505173604 27 200 11.3 32.2 0.00 0.00 0.00 39 1007.7
20260505173057 27 314 9.7 29.0 0.00 0.00 0.00 42 1007.6
20260505172551 26 225 9.7 22.5 0.00 0.00 0.00 43 1007.8
20260505172045 26 192 12.9 43.5 0.00 0.00 0.00 47 1007.9
20260505171539 26 206 11.3 43.5 0.00 0.00 0.00 45 1008.1
20260505171033 26 263 8.0 27.4 0.00 0.00 0.00 45 1008.0
20260505170527 26 246 9.7 27.4 0.00 0.00 0.00 44 1008.3
20260505170021 26 233 9.7 25.7 0.00 0.00 0.00 44 1008.3
20260505165519 26 254 9.7 25.7 0.00 0.00 0.00 45 1008.4
20260505165005 25 200 11.3 24.1 0.00 0.00 0.00 45 1008.5
20260505164730 26 244 8.0 24.1 0.00 0.00 0.00 47 1008.5
20260505164224 25 218 6.4 17.7 0.00 0.00 0.00 48 1008.5
20260505163447 25 240 8.0 22.5 0.00 0.00 0.00 47 1008.8
20260505162946 25 192 8.0 20.9 0.00 0.00 0.00 49 1008.8
20260505162941 25 209 8.0 22.5 0.00 0.00 0.00 49 1008.7
20260505161929 25 216 9.7 24.1 0.00 0.00 0.00 51 1008.7
20260505161654 24 199 11.3 25.7 0.00 0.00 0.00 48 1008.7
20260505160917 24 185 11.3 27.4 0.00 0.00 0.00 47 1008.8
20260505160411 25 196 9.7 27.4 0.00 0.00 0.00 48 1008.9
20260505153335 24 201 8.0 17.7 0.00 0.00 0.00 50 1009.2
20260505152834 23 256 6.4 17.7 0.00 0.00 0.00 53 1009.3
20260505152605 23 222 4.8 14.5 0.00 0.00 0.00 53 1009.3
20260505151835 23 222 6.4 16.1 0.00 0.00 0.00 50 1009.3
20260505151333 23 264 8.0 20.9 0.00 0.00 0.00 51 1009.3
20260505151107 23 258 8.0 20.9 0.00 0.00 0.00 56 1009.4
20260505150334 23 207 8.0 19.3 0.00 0.00 0.00 54 1009.4
20260505140333 21 241 4.8 14.5 0.00 0.00 0.00 61 1010.0
20260505124831 17 302 6.4 19.3 0.00 0.00 0.00 66 1009.8
20260505124332 17 277 6.4 19.3 0.00 0.00 0.00 66 1009.7
20260505123830 17 249 6.4 17.7 0.00 0.00 0.00 68 1009.7
20260505123334 17 258 6.4 16.1 0.00 0.00 0.00 70 1009.3
20260505123329 17 251 6.4 16.1 0.00 0.00 0.00 70 1009.3
20260505122329 16 263 8.0 16.1 0.00 0.00 0.00 69 1009.3
20260505122058 16 257 6.4 16.1 0.00 0.00 0.00 72 1009.3
20260505121327 16 220 4.8 12.9 0.00 0.00 0.00 72 1009.4
20260505120827 16 211 4.8 14.5 0.00 0.00 0.00 73 1009.3
20260505120329 16 221 4.8 14.5 0.00 0.00 0.00 72 1009.3
20260505115825 15 223 3.2 12.9 0.00 0.00 0.00 76 1009.4
20260505115325 15 243 3.2 11.3 0.00 0.00 0.00 77 1009.5
20260505114827 15 197 3.2 11.3 0.00 0.00 0.00 77 1009.4
20260505114558 14 293 3.2 11.3 0.00 0.00 0.00 80 1009.4
20260505113825 13 266 3.2 11.3 0.00 0.00 0.00 82 1009.6
20260505113325 13 257 1.6 6.4 0.00 0.00 0.00 85 1009.6
20260505112823 12 234 1.6 6.4 0.00 0.00 0.00 86 1009.5
20260505112324 12 237 1.6 6.4 0.00 0.00 0.00 87 1009.5
20260505111817 11 246 3.2 9.7 0.00 0.00 0.00 87 1009.5
20260505111311 11 240 3.2 11.3 0.00 0.00 0.00 87 1009.5
20260505110805 11 230 3.2 11.3 0.00 0.00 0.00 87 1009.5
20260505110259 11 246 3.2 11.3 0.00 0.00 0.00 88 1009.4
20260505102212 12 232 1.6 6.4 0.00 0.00 0.00 84 1009.5
20260505102207 12 243 3.2 9.7 0.00 0.00 0.00 83 1009.4
20260505101201 11 286 3.2 9.7 0.00 0.00 0.00 83 1009.5
20260505101156 11 207 1.6 8.0 0.00 0.00 0.00 81 1009.4
20260505100147 11 254 1.6 8.0 0.00 0.00 0.00 82 1009.3
20260505095642 11 269 1.6 6.4 0.00 0.00 0.00 82 1009.3
20260505095407 11 229 1.6 6.4 0.00 0.00 0.00 81 1009.2
20260505094900 11 230 1.6 6.4 0.00 0.00 0.00 81 1009.2
20260505094123 11 268 1.6 6.4 0.00 0.00 0.00 81 1009.1
20260505093618 11 273 1.6 6.4 0.00 0.00 0.00 81 1009.1
20260505093111 11 257 3.2 11.3 0.00 0.00 0.00 81 1009.1
20260505092606 10 222 3.2 11.3 0.00 0.00 0.00 82 1009.0
20260505092100 10 225 1.6 8.0 0.00 0.00 0.00 81 1008.9
20260505091553 10 253 1.6 6.4 0.00 0.00 0.00 81 1008.9
20260505091048 11 279 1.6 6.4 0.00 0.00 0.00 80 1008.7
20260505090542 11 266 1.6 6.4 0.00 0.00 0.00 80 1008.6
20260505090036 11 239 1.6 6.4 0.00 0.00 0.00 80 1008.6
20260505085530 10 245 1.6 6.4 0.00 0.00 0.00 81 1008.5
20260505085254 10 271 1.6 9.7 0.00 0.00 0.00 81 1008.5
20260505084517 10 269 1.6 9.7 0.00 0.00 0.00 81 1008.5
20260505084012 10 258 1.6 9.7 0.00 0.00 0.00 80 1008.4
20260505083505 10 240 1.6 9.7 0.00 0.00 0.00 80 1008.5
20260505082959 11 256 1.6 9.7 0.00 0.00 0.00 80 1008.6
20260505082454 10 252 1.6 9.7 0.00 0.00 0.00 81 1008.6
20260505081947 10 240 1.6 6.4 0.00 0.00 0.00 81 1008.6
20260505081441 10 248 1.6 6.4 0.00 0.00 0.00 80 1008.7
20260505080936 10 229 1.6 6.4 0.00 0.00 0.00 80 1008.6
20260505080429 11 239 1.6 4.8 0.00 0.00 0.00 79 1008.6
20260505075923 11 286 1.6 6.4 0.00 0.00 0.00 78 1008.7
20260505075655 11 275 1.6 6.4 0.00 0.00 0.00 78 1008.6
20260505074924 11 261 1.6 9.7 0.00 0.00 0.00 78 1008.5
20260505074422 11 286 1.6 9.7 0.00 0.00 0.00 78 1008.5
20260505074154 11 250 1.6 6.4 0.00 0.00 0.00 77 1008.4
20260505073421 11 278 1.6 9.7 0.00 0.00 0.00 78 1008.4
20260505072918 11 265 1.6 9.7 0.00 0.00 0.00 79 1008.5
20260505072417 11 178 1.6 8.0 0.00 0.00 0.00 79 1008.4
20260505071916 11 231 1.6 8.0 0.00 0.00 0.00 80 1008.3
20260505071417 11 211 1.6 8.0 0.00 0.00 0.00 80 1008.3
20260505070916 11 214 3.2 8.0 0.00 0.00 0.00 80 1008.3
20260505070647 11 217 1.6 6.4 0.00 0.00 0.00 79 1008.4
20260505065917 11 255 1.6 8.0 0.00 0.00 0.00 79 1008.5
20260505065413 11 219 1.6 8.0 0.00 0.00 0.00 79 1008.5
20260505064912 11 226 1.6 6.4 0.00 0.00 0.00 79 1008.5
20260505064412 11 241 3.2 11.3 0.00 0.00 0.00 79 1008.5
20260505063912 11 229 3.2 11.3 0.00 0.00 0.00 79 1008.6
20260505063413 11 220 3.2 9.7 0.00 0.00 0.00 79 1008.5
20260505062913 11 255 3.2 8.0 0.00 0.00 0.00 79 1008.5
20260505062414 11 212 1.6 8.0 0.00 0.00 0.00 77 1008.6
20260505061913 11 243 3.2 8.0 0.00 0.00 0.00 77 1008.6
20260505061413 11 221 3.2 12.9 0.00 0.00 0.00 76 1008.6
20260505061138 11 211 3.2 12.9 0.00 0.00 0.00 76 1008.7
20260505060401 11 260 3.2 12.9 0.00 0.00 0.00 76 1008.7